EW5937 Weather Reports


Display with metric or nautical units.
time (UTC)temp
F
wind
direction
speed
MPH
gust
MPH
rain 1hr
in
rain 24hr
in
rain mn
in
humidity
%
barometer
mb
20210921045821 47 267 0.0 0.0 0.00 0.00 0.01 82 1023.1
20210921044821 48 267 0.0 0.0 0.00 0.00 0.01 80 1022.9
20210921043821 48 267 0.0 0.0 0.00 0.00 0.01 79 1022.9
20210921042821 48 267 0.0 0.0 0.00 0.00 0.01 78 1022.7
20210921041821 49 267 0.0 0.0 0.00 0.00 0.01 77 1022.8
20210921040821 49 267 0.0 0.0 0.00 0.00 0.01 75 1022.8
20210921035821 50 267 0.0 1.0 0.00 0.00 0.00 73 1022.6
20210921034821 51 268 0.0 1.0 0.00 0.00 0.00 71 1022.4
20210921033821 51 264 0.0 1.0 0.00 0.00 0.00 67 1022.2
20210921032821 52 331 0.0 3.0 0.00 0.00 0.00 64 1022.1
20210921031821 53 334 0.0 2.0 0.00 0.00 0.00 58 1021.7
20210921030821 54 267 0.0 1.0 0.00 0.00 0.00 54 1021.4
20210921025821 54 53 0.0 1.0 0.00 0.00 0.00 53 1021.1
20210921024821 54 60 0.0 2.0 0.00 0.00 0.00 52 1020.7
20210921023821 55 43 0.0 4.0 0.00 0.00 0.00 50 1020.2
20210921022821 55 53 0.0 4.0 0.00 0.00 0.00 48 1019.6
20210921021820 56 44 2.0 4.0 0.00 0.00 0.00 48 1019.0
20210921020820 56 25 2.0 4.0 0.00 0.00 0.00 46 1018.5
20210921015820 57 58 3.0 6.0 0.00 0.00 0.00 45 1017.8
20210921014821 58 65 2.0 6.0 0.00 0.00 0.00 43 1017.4
20210921013820 58 63 6.0 8.0 0.00 0.00 0.00 39 1017.0
20210921012820 59 57 1.0 4.0 0.00 0.00 0.00 29 1016.6
20210921011820 59 55 2.0 4.0 0.00 0.00 0.00 30 1016.1
20210921010820 60 60 2.0 4.0 0.00 0.00 0.00 29 1015.9
20210921005820 60 77 2.0 5.0 0.00 0.00 0.00 29 1015.6
20210921004820 61 70 1.0 5.0 0.00 0.00 0.00 29 1015.4
20210921003820 61 73 2.0 4.0 0.00 0.00 0.00 29 1015.1
20210921002820 61 53 3.0 4.0 0.00 0.00 0.00 28 1014.8
20210921001820 62 68 2.0 3.0 0.00 0.00 0.00 29 1014.6
20210921000820 62 77 0.0 6.0 0.00 0.00 0.00 30 1014.4
20210920235820 62 70 3.0 5.0 0.00 0.00 0.00 29 1014.1
20210920234820 63 82 2.0 4.0 0.00 0.00 0.00 29 1013.9
20210920233820 63 58 3.0 5.0 0.00 0.00 0.00 28 1013.8
20210920232820 63 96 0.0 5.0 0.00 0.00 0.00 28 1013.6
20210920231820 64 65 3.0 5.0 0.00 0.00 0.00 28 1013.5
20210920230820 64 89 3.0 6.0 0.00 0.00 0.00 28 1013.3
20210920225820 64 77 0.0 4.0 0.00 0.00 0.00 29 1013.0
20210920224820 64 63 0.0 3.0 0.00 0.00 0.00 27 1012.9
20210920223820 64 58 0.0 4.0 0.00 0.00 0.00 27 1012.7
20210920222820 65 70 0.0 1.0 0.00 0.00 0.00 27 1012.5
20210920221820 66 60 0.0 3.0 0.00 0.00 0.00 25 1012.4
20210920220820 67 356 0.0 2.0 0.00 0.00 0.00 26 1012.3
20210920215820 67 83 0.0 4.0 0.00 0.00 0.00 25 1012.1
20210920214820 67 41 2.0 4.0 0.00 0.00 0.00 24 1012.1
20210920213820 67 64 0.0 5.0 0.00 0.00 0.00 26 1012.0
20210920212820 68 52 2.0 4.0 0.00 0.00 0.00 24 1011.8
20210920211820 68 47 2.0 4.0 0.00 0.00 0.00 26 1011.9
20210920210820 68 49 2.0 5.0 0.00 0.00 0.00 26 1011.6
20210920205820 67 65 3.0 4.0 0.00 0.00 0.00 27 1011.8
20210920204820 67 53 3.0 5.0 0.00 0.00 0.00 25 1011.8
20210920203820 68 39 0.0 4.0 0.00 0.00 0.00 27 1011.9
20210920202820 68 56 0.0 3.0 0.00 0.00 0.00 25 1011.7
20210920201820 68 53 0.0 3.0 0.00 0.00 0.00 26 1011.8
20210920200820 68 65 0.0 2.0 0.00 0.00 0.00 27 1011.8
20210920195820 67 63 0.0 3.0 0.00 0.00 0.00 29 1011.7
20210920194820 67 51 0.0 3.0 0.00 0.00 0.00 28 1011.7
20210920193820 67 20 2.0 4.0 0.00 0.00 0.00 28 1011.8
20210920192820 67 23 1.0 4.0 0.00 0.00 0.00 27 1011.8
20210920191820 67 302 0.0 3.0 0.00 0.00 0.00 29 1011.8
20210920190820 67 47 2.0 3.0 0.00 0.00 0.00 28 1011.6
20210920185819 67 53 1.0 6.0 0.00 0.00 0.00 29 1011.5
20210920184819 67 288 0.0 3.0 0.00 0.00 0.00 28 1011.5
20210920183819 66 331 0.0 5.0 0.00 0.00 0.00 25 1011.4
20210920182820 66 309 0.0 5.0 0.00 0.00 0.00 26 1011.5
20210920181819 66 286 1.0 4.0 0.00 0.00 0.00 22 1011.4
20210920180820 66 335 1.0 5.0 0.00 0.00 0.00 25 1011.5
20210920175819 65 326 0.0 5.0 0.00 0.00 0.00 23 1011.4
20210920174819 65 353 0.0 4.0 0.00 0.00 0.00 23 1011.5
20210920173819 65 1 0.0 4.0 0.00 0.00 0.00 25 1011.5
20210920172819 65 210 4.0 4.0 0.00 0.00 0.00 23 1011.5
20210920171819 65 274 1.0 4.0 0.00 0.00 0.00 25 1011.4
20210920170820 64 155 0.0 2.0 0.00 0.00 0.00 26 1011.4
20210920165819 64 45 0.0 5.0 0.00 0.00 0.00 28 1011.3
20210920164820 63 134 0.0 3.0 0.00 0.00 0.00 29 1011.3
20210920163819 62 320 0.0 4.0 0.00 0.00 0.00 29 1011.3
20210920162819 62 93 1.0 4.0 0.00 0.00 0.00 30 1011.2
20210920161819 61 111 2.0 4.0 0.00 0.00 0.00 30 1011.0
20210920160819 60 352 3.0 4.0 0.00 0.00 0.00 33 1011.0
20210920155819 59 188 0.0 1.0 0.00 0.00 0.00 42 1011.2
20210920154819 59 64 0.0 1.0 0.00 0.00 0.00 41 1010.9
20210920153819 59 53 0.0 3.0 0.00 0.00 0.00 40 1010.8
20210920152819 59 250 3.0 6.0 0.00 0.00 0.00 39 1010.3
20210920151819 58 313 1.0 2.0 0.00 0.00 0.00 40 1010.6
20210920150819 58 316 0.0 4.0 0.00 0.00 0.00 38 1010.2
20210920145819 57 139 0.0 5.0 0.00 0.00 0.00 40 1010.2
20210920144819 57 114 0.0 2.0 0.00 0.00 0.00 42 1010.1
20210920143819 56 353 0.0 4.0 0.00 0.00 0.00 40 1010.0
20210920142819 56 8 0.0 2.0 0.00 0.00 0.00 44 1009.9
20210920141819 55 269 0.0 4.0 0.00 0.00 0.00 45 1009.8
20210920140819 55 311 0.0 0.0 0.00 0.00 0.00 47 1009.5
20210920135819 55 320 0.0 6.0 0.00 0.00 0.00 46 1009.1
20210920134819 55 330 0.0 3.0 0.00 0.00 0.00 43 1008.8
20210920133819 55 20 0.0 6.0 0.00 0.00 0.00 44 1008.5
20210920132819 54 104 2.0 4.0 0.00 0.00 0.00 45 1008.4
20210920131819 54 165 0.0 4.0 0.00 0.00 0.00 44 1008.2
20210920130912 54 32 0.0 3.0 0.00 0.00 0.00 46 1008.1
20210920125912 54 128 0.0 1.0 0.00 0.00 0.00 45 1007.9
20210920124912 54 148 0.0 2.0 0.00 0.00 0.00 44 1007.3
20210920123912 54 197 0.0 3.0 0.00 0.00 0.00 44 1007.2
20210920122912 54 75 0.0 2.0 0.00 0.00 0.00 43 1006.8
20210920121912 55 130 0.0 1.0 0.00 0.00 0.00 43 1006.6
20210920120912 55 252 2.0 4.0 0.00 0.00 0.00 42 1006.5
20210920115912 55 96 0.0 8.0 0.00 0.00 0.00 41 1006.2
20210920114912 55 65 2.0 7.0 0.00 0.00 0.00 41 1005.7
20210920113912 55 18 4.0 7.0 0.00 0.00 0.00 43 1005.3
20210920112912 54 27 0.0 1.0 0.00 0.00 0.00 48 1005.3
20210920111912 54 111 0.0 4.0 0.00 0.00 0.00 51 1005.6
20210920110912 54 212 0.0 2.0 0.00 0.00 0.00 59 1005.4
20210920105912 54 251 0.0 1.0 0.00 0.00 0.00 59 1005.0
20210920104912 54 198 0.0 1.0 0.00 0.00 0.00 59 1004.4
20210920103912 55 254 0.0 2.0 0.00 0.00 0.00 58 1004.7
20210920102912 55 199 0.0 1.0 0.00 0.00 0.00 57 1004.0
20210920101912 56 350 0.0 1.0 0.00 0.00 0.00 56 1004.6
20210920100912 56 339 0.0 1.0 0.00 0.00 0.00 56 1003.9
20210920095912 56 236 0.0 2.0 0.00 0.00 0.00 56 1003.8
20210920094912 57 248 0.0 1.0 0.00 0.00 0.00 57 1003.8
20210920093912 57 278 0.0 0.0 0.00 0.00 0.00 56 1003.9
20210920092912 57 221 0.0 2.0 0.00 0.00 0.00 56 1003.7
20210920091912 57 106 0.0 2.0 0.00 0.00 0.00 56 1003.7
20210920090912 57 115 0.0 2.0 0.00 0.00 0.00 57 1003.7
20210920085912 57 133 0.0 1.0 0.00 0.00 0.00 56 1003.7
20210920084912 57 161 0.0 2.0 0.00 0.00 0.00 55 1003.9
20210920083912 57 101 2.0 2.0 0.00 0.00 0.00 55 1003.4
20210920082911 57 132 0.0 1.0 0.00 0.00 0.00 55 1003.2
20210920081912 58 122 0.0 1.0 0.00 0.00 0.00 56 1003.0
20210920080912 58 207 0.0 2.0 0.00 0.00 0.00 56 1003.0
20210920075912 58 74 0.0 0.0 0.00 0.00 0.00 57 1002.8
20210920074911 58 70 0.0 0.0 0.00 0.00 0.00 55 1003.4
20210920073911 58 70 0.0 0.0 0.00 0.00 0.00 55 1002.2
20210920072911 58 70 0.0 1.0 0.00 0.00 0.00 55 1002.3
20210920071912 58 73 0.0 1.0 0.00 0.00 0.00 54 1001.8
20210920070911 59 73 0.0 2.0 0.00 0.00 0.00 54 1001.7
20210920065911 60 48 0.0 3.0 0.00 0.00 0.00 53 1001.8
20210920064911 60 32 1.0 3.0 0.00 0.00 0.00 53 1001.6
20210920063911 61 72 0.0 5.0 0.00 0.00 0.00 51 1001.0
20210920062912 62 45 1.0 5.0 0.00 0.00 0.00 50 1000.3
20210920061911 63 33 3.0 6.0 0.00 0.00 0.00 47 1000.2
20210920060911 65 4 3.0 6.0 0.00 0.00 0.00 43 999.8
20210920055911 68 47 1.0 1.0 0.00 0.00 0.00 32 999.0
20210920054912 69 205 0.0 0.0 0.00 0.00 0.00 30 998.3
20210920053911 69 205 0.0 0.0 0.00 0.00 0.00 29 998.1
20210920052911 69 211 0.0 0.0 0.00 0.00 0.00 29 998.1
20210920051911 70 173 0.0 0.0 0.00 0.00 0.00 29 998.1
20210920050911 71 203 0.0 1.0 0.00 0.00 0.00 28 998.0